Погода в Шуйке

Россия / Республика Марий Эл     56°11′05″N   47°56′15″E
темп.,
°C
ветер,
м/с
пор.,
м/с
влажн.,
%
обл.,
%
осадки,
мм/ч
давл.,
гПа
погр.,
м
4 марта, чт
чт400:00−8юз3896100 0.1 1003218
03:00−5зюз41195100 0.6 1001548
06:00−3зюз41094100 0.2 998551
09:00−2юз51193100 0.6 996786
12:00−1юз71297100 1.2 992915
15:000зюз71399100 2.8 989953
18:00−3з6148298 1.5 9911048
21:00−4зсз6148997 1.5 994885
5 марта, пт
пт500:00−7зсз41093100 0.1 997409
03:00−11зсз369792 0.1 1000117
06:00−15зсз239769 0.0 100244
09:00−12сз249448 0.0 1004213
12:00−7зсз238412 0.0 1005489
15:00−6з358721 0.0 1006707
18:00−10юз239696 0.1 100771
21:00−12зюз349681 0.1 100984
6 марта, сб
сб600:00−13зюз239663 0.0 101030
03:00−12зюз239772 0.3 101175
06:00−14зсз129897 0.1 101120
09:00−11ссз239598 0.2 1012254
12:00−9ссз3390100 0.1 1012611
15:00−10сз3588100 0.3 1012739
18:00−14ссз2396100 0.2 101257
21:00−18зсз229892 0.3 101320
7 марта, вс
вс700:00−20з2310060 0.0 101329
03:00−20зюз2310069 0.1 101334
06:00−20ююз239996 0.1 101176
09:00−14ююз489497 0.1 1010313
12:00−10ю5108693 0.0 1007586
15:00−8ю7139096 0.1 1004830
18:00−7ю61394100 1.7 10001092
21:00−6ю71393100 2.9 9971021
8 марта, пн
пн800:00−6ю61394100 1.1 991923
03:00−4юз71293100 2.8 9891041
06:00−11юз6148486 0.1 990685
09:00−9юз7157757 0.1 9921237
12:00−8зюз81581100 0.1 9931371
15:00−8з81391100 0.8 9961146
18:00−9з61290100 0.3 998769
21:00−10зсз41094100 0.5 1002488